451  
ASUS43 KMPX 240310  
RWRMN  
WEATHER ROUNDUP FOR MINNESOTA  
NATIONAL WEATHER SERVICE TWIN CITIES/CHANHASSEN MN  
1000 PM CDT SUN SEP 23 2018  
 
NOTE: "FAIR" INDICATES FEW OR NO CLOUDS BELOW 12,000 FEET WITH NO  
SIGNIFICANT WEATHER AND/OR S TO VISIBILITY
. N/A MEANS  
CURRENT SKY AND/OR WEATHER CONDITIONS ARE NOT AVAILABLE.  
 
MNZ060>063-068>070-240400-  
TWIN CITIES METRO  
 
CITY SKY/WX TMP DP RH WIND PRES REMARKS
 
TWIN CITIES MOCLDY 66 53 63 SE14 29.95R  
ST PAUL FAIR 64 54 69 SE8 29.96S  
CRYSTAL FAIR 66 53 63 SE8 29.93R  
BLAINE PTCLDY 64 52 63 SE12 29.95R  
LAKEVILLE FAIR 63 54 72 SE5 29.95F  
EDEN PRAIRIE FAIR 65 51 60 SE13 29.93R  
SOUTH ST PAUL FAIR 65 53 66 SE8 29.96R  
LAKE ELMO FAIR 64 54 68 SE10G17 29.98S  

 
MNZ001>005-007-008-013>017-022>024-027-028-240400-  
NORTHWEST MINNESOTA  
 
CITY SKY/WX TMP DP RH WIND PRES REMARKS
 
BEMIDJI CLOUDY 47 45 93 E16G24 29.94F  
HALLOCK CLOUDY 46 43 87 E10 29.93F  
ROSEAU CLOUDY 45 39 81 E17 29.97F  
WARROAD CLOUDY 45 39 81 E21 30.00F  
THIEF RVR FALL CLOUDY 49 44 83 E16G23 29.91F  
CROOKSTON FAIR 52 46 82 E13G18 29.88F  
FOSSTON CLOUDY 46 45 93 E10G17 29.89F  
DETROIT LAKES MOCLDY 52 48 87 E12G21 29.86F  
MOORHEAD FAIR 55 50 82 E9 29.80S  
PARK RAPIDS CLOUDY 51 48 89 E12G22 29.91F  
MAHNOMEN CLOUDY 51 48 87 E9G22 29.85F  

 
MNZ006-009>011-018-025>026-240400-  
NORTH CENTRAL MINNESOTA  
 
CITY SKY/WX TMP DP RH WIND PRES REMARKS
 
BAUDETTE CLOUDY 44 40 85 E16G28 30.01F  
FLAG ISLAND CLOUDY 43 39 87 E9 30.03F  
INTL FALLS CLOUDY 43 40 89 SE16 30.08F  
WASKISH CLOUDY 45 43 93 E12G18 29.99F  
BIG FORK CLOUDY 45 43 93 E7 30.03F  
LONGVILLE CLOUDY 48 46 93 MISG 29.97F  
GRAND RAPIDS CLOUDY 45 44 97 SE9 30.03F  
ORR CLOUDY 43 39 87 E3 30.05F  
COOK CLOUDY 43 41 93 E8 30.09R  
WALKER CLOUDY 48 47 96 E12 29.95F  

 
MNZ012-019>021-037-240400-  
NORTHEAST MINNESOTA  
 
CITY SKY/WX TMP DP RH WIND PRES REMARKS
 
DULUTH FOG 48 47 96 E21G29 30.08R VSB 1/4  
ELY CLOUDY 43 43 100 E14 30.10S  
HIBBING CLOUDY 43 42 97 SE14G22 30.05F  
EVELETH CLOUDY 43 42 97 E7 30.07F  
DULUTH HARBOR CLOUDY 54 50 87 N26G32 30.09F  
TWO HARBORS CLOUDY 45 39 81 E25G32 30.09F HAZE  
SILVER BAY CLOUDY 45 45 100 NE15G30 30.12S  
GRAND MARAIS N/A 48 43 82 E31G41 30.19F  
G MARAIS ARPRT FOG 37 36 93 E10G20 30.17F VSB<1/4  

 
MNZ029>031-032-039>041-046>048-054>057-064-240400-  
WEST CENTRAL MINNESOTA  
 
CITY SKY/WX TMP DP RH WIND PRES REMARKS
 
FERGUS FALLS MOCLDY 55 52 88 E13G20 29.81F  
WHEATON MOCLDY 66 50 55 SE14 29.77F  
MORRIS CLOUDY 64 52 63 SE14G20 29.79F  
ALEXANDRIA FAIR 65 52 62 SE15 29.86F  
ELBOW LAKE FAIR 65 51 60 SE13G18 29.81S  
WADENA MOCLDY 52 48 87 E14 29.88F  
GLENWOOD FAIR 63 52 67 SE12 29.85F  
APPLETON PTCLDY 66 50 55 SE10 29.79F  
BENSON PTCLDY 66 52 59 S8 29.84S  
ORTONVILLE CLOUDY 64 52 63 SE12 29.77F  
MADISON PTCLDY 66 54 63 SE8 29.79F  
WILLMAR FAIR 66 52 59 SE10 29.88S  

 
MNZ033>034-036-042>043-049>051-058-059-240400-  
CENTRAL MINNESOTA  
 
CITY SKY/WX TMP DP RH WIND PRES REMARKS
 
ST CLOUD FAIR 63 54 72 E8 29.91S  
SAUK CENTRE FAIR 62 52 70 E10G17 29.87F  
PAYNESVILLE FAIR 65 54 67 SE8 29.89S  
AITKIN CLOUDY 48 45 87 E9 29.98S  
PINE RIVER CLOUDY 48 45 87 E8 29.99F  
BRAINERD CLOUDY 52 47 83 E12 29.95S  
STAPLES FAIR 52 48 87 E8 29.91F  
LONG PRAIRIE FAIR 55 52 88 E6 29.90S  
LITTLE FALLS FAIR 55 52 88 E8 29.91F  
LITCHFIELD FAIR 64 54 68 SE7 29.90S  
BUFFALO FAIR 66 51 58 SE9 29.93F  
MAPLE LAKE FAIR 66 55 67 SE6 29.92S  
HUTCHINSON FAIR 64 55 73 SE8 29.91F  

 
MNZ037-044-045-052-053-240400-  
EAST CENTRAL MINNESOTA  
 
CITY SKY/WX TMP DP RH WIND PRES REMARKS
 
PRINCETON FAIR 63 54 72 E7 29.94F  
MORA FAIR 50 48 93 E5 29.99S  
CAMBRIDGE FAIR 64 50 59 E6 29.95F  
RUSH CITY MOCLDY 53 50 92 NE5 29.98F  
MOOSE LAKE CLOUDY 46 45 93 E7 30.02R  
HINCKLEY MOCLDY 50 50 100 E7 30.00F  
CLOQUET CLOUDY 48 46 93 E13G25 30.05S FOG  
MCGREGOR CLOUDY 50 46 87 E12 30.01S  

 
MNZ071>073-080-081-089-090-097-098-240400-  
SOUTHWEST MINNESOTA  
 
CITY SKY/WX TMP DP RH WIND PRES REMARKS
 
MONTEVIDEO PTCLDY 66 48 52 S12 29.82F  
GRANITE FALLS CLOUDY 67 54 61 SE10 29.84S  
CANBY PTCLDY 63 54 72 E8 29.79F  
MARSHALL PTCLDY 67 53 61 S9 29.83R  
REDWOOD FALLS CLOUDY 65 54 67 SE15 29.85F  
OLIVIA PTCLDY 64 52 63 SE13 29.86S  
PIPESTONE MOCLDY 68 55 64 S20G26 29.83S  
WINDOM CLEAR 66 54 63 S14 29.88S  
WORTHINGTON CLEAR 65 54 67 S14 29.90R  
JACKSON CLEAR 64 52 63 S13G20 29.91R  
TRACY CLOUDY 66 54 63 S13G18 29.82S  
SLAYTON CLOUDY 64 54 68 S12G17 29.86F  

 
MNZ065>067-074>077-082>085-091>093-240400-  
SOUTH CENTRAL MINNESOTA  
 
CITY SKY/WX TMP DP RH WIND PRES REMARKS
 
MANKATO FAIR 65 52 62 SE16 29.92F  
NEW ULM CLEAR 64 52 63 S12 29.89R  
ST JAMES CLEAR 66 54 63 SE14G20 29.91S  
FAIRMONT CLEAR 64 55 72 S15 29.92S  
OWATONNA FAIR 64 52 63 SE13 29.96S  
WASECA FAIR 63 50 63 SE13 29.96F  
ALBERT LEA FAIR 63 52 67 S13 29.98S  

 
MNZ078>079-086>088-094>096-240400-  
SOUTHEAST MINNESOTA  
 
CITY SKY/WX TMP DP RH WIND PRES REMARKS
 
ROCHESTER FAIR 58 51 78 SE12 30.01S  
RED WING FAIR 64 48 55 SE9G18 29.98S  
DODGE CENTER FAIR 59 48 67 SE10 30.00S  
WINONA FAIR 59 52 77 CALM 30.03S  
AUSTIN FAIR 63 50 63 SE7 30.00S  
PRESTON FAIR 58 50 75 SE10 30.03F  

 
ABBREVIATIONS USED IN REMARKS  
TC - TEMPERATURES IN CELSIUS  
WCI - WIND CHILL INDEX  
HX - HEAT INDEX  
VSB - VISIBILITY  

 
 
 
CLICK HERE TO GO TO PREVIOUS BULLETINS.

The Nexlab MN Page Main Text Page